Tracking 19407 objects as of 14-Dec-2018
HD Live streaming from Space Station
objects crossing your sky now

SOLRAD 3/INJUN 1

Track SOLRAD 3/INJUN 1 now!
10-day predictions
SOLRAD 3/INJUN 1 is classified as:


NORAD ID: 117
Int'l Code: 1961-015B
Perigee: 883.4 km
Apogee: 989.3 km
Inclination: 66.8 °
Period: 103.6 minutes
Semi major axis: 7307 km
RCS: 0.4448 m2 (medium)
Launch date: June 29, 1961
Source: United States (US)
Launch site: AIR FORCE EASTERN TEST RANGE (AFETR)
aabbcc
Your satellite tracking list
Your tracking list is empty




NASA's NSSDC Master Catalog

Two Line Element Set (TLE):
1   117U 61015B   18347.88708510 -.00000064 +00000-0 +10041-4 0  9993
2   117 066.8112 207.9294 0072485 052.3425 308.4200 13.89833493912971
Source of the keplerian elements: AFSPC